Year,Month,Day,Hour,Minute,Value (Times are PST for temperature in C)
2007,06,21,00,00,15.70
2007,06,21,00,01,15.70
2007,06,21,00,02,15.70
2007,06,21,00,03,15.70
2007,06,21,00,04,15.70
2007,06,21,00,05,15.70
2007,06,21,00,06,15.70
2007,06,21,00,07,15.70
2007,06,21,00,08,15.70
2007,06,21,00,09,15.70
2007,06,21,00,10,15.70
2007,06,21,00,11,15.70
2007,06,21,00,12,15.70
2007,06,21,00,13,15.70
2007,06,21,00,14,15.60
2007,06,21,00,15,15.60
2007,06,21,00,16,15.60
2007,06,21,00,17,15.60
2007,06,21,00,18,15.60
2007,06,21,00,19,15.60
2007,06,21,00,20,15.60
2007,06,21,00,21,15.60
2007,06,21,00,22,15.50
2007,06,21,00,23,15.50
2007,06,21,00,24,15.50
2007,06,21,00,25,15.50
2007,06,21,00,26,15.40
2007,06,21,00,27,15.40
2007,06,21,00,28,15.40
2007,06,21,00,29,15.40
2007,06,21,00,30,15.40
2007,06,21,00,31,15.40
2007,06,21,00,32,15.40
2007,06,21,00,33,15.40
2007,06,21,00,34,15.40
2007,06,21,00,35,15.30
2007,06,21,00,36,15.30
2007,06,21,00,37,15.30
2007,06,21,00,38,15.30
2007,06,21,00,39,15.30
2007,06,21,00,40,15.30
2007,06,21,00,41,15.30
2007,06,21,00,42,15.30
2007,06,21,00,43,15.30
2007,06,21,00,44,15.30
2007,06,21,00,45,15.30
2007,06,21,00,46,15.30
2007,06,21,00,47,15.30
2007,06,21,00,48,15.30
2007,06,21,00,49,15.30
2007,06,21,00,50,15.30
2007,06,21,00,51,15.30
2007,06,21,00,52,15.30
2007,06,21,00,53,15.30
2007,06,21,00,54,15.30
2007,06,21,00,55,15.30
2007,06,21,00,56,15.30
2007,06,21,00,57,15.30
2007,06,21,00,58,15.30
2007,06,21,00,59,15.30
2007,06,21,01,00,15.30
2007,06,21,01,01,15.30
2007,06,21,01,02,15.30
2007,06,21,01,03,15.30
2007,06,21,01,04,15.20
2007,06,21,01,05,15.20
2007,06,21,01,06,15.20
2007,06,21,01,07,15.20
2007,06,21,01,08,15.20
2007,06,21,01,09,15.10
2007,06,21,01,10,15.10
2007,06,21,01,11,15.10
2007,06,21,01,12,15.10
2007,06,21,01,13,15.10
2007,06,21,01,14,15.10
2007,06,21,01,15,15.10
2007,06,21,01,16,15.10
2007,06,21,01,17,15.00
2007,06,21,01,18,15.00
2007,06,21,01,19,15.00
2007,06,21,01,20,15.00
2007,06,21,01,21,15.00
2007,06,21,01,22,15.00
2007,06,21,01,23,15.00
2007,06,21,01,24,15.00
2007,06,21,01,25,15.00
2007,06,21,01,26,15.00
2007,06,21,01,27,15.00
2007,06,21,01,28,15.10
2007,06,21,01,29,15.10
2007,06,21,01,30,15.10
2007,06,21,01,31,15.10
2007,06,21,01,32,15.10
2007,06,21,01,33,15.10
2007,06,21,01,34,15.10
2007,06,21,01,35,15.00
2007,06,21,01,36,15.00
2007,06,21,01,37,15.00
2007,06,21,01,38,15.00
2007,06,21,01,39,15.00
2007,06,21,01,40,15.00
2007,06,21,01,41,15.00
2007,06,21,01,42,15.00
2007,06,21,01,43,15.00
2007,06,21,01,44,15.00
2007,06,21,01,45,14.90
2007,06,21,01,46,15.00
2007,06,21,01,47,14.90
2007,06,21,01,48,14.90
2007,06,21,01,49,14.90
2007,06,21,01,50,14.90
2007,06,21,01,51,14.90
2007,06,21,01,52,14.90
2007,06,21,01,53,14.90
2007,06,21,01,54,14.90
2007,06,21,01,55,14.80
2007,06,21,01,56,14.80
2007,06,21,01,57,14.80
2007,06,21,01,58,14.80
2007,06,21,01,59,14.80
2007,06,21,02,00,14.80
2007,06,21,02,01,14.80
2007,06,21,02,02,14.80
2007,06,21,02,03,14.80
2007,06,21,02,04,14.80
2007,06,21,02,05,14.80
2007,06,21,02,06,14.70
2007,06,21,02,07,14.70
2007,06,21,02,08,14.70
2007,06,21,02,09,14.70
2007,06,21,02,10,14.70
2007,06,21,02,11,14.70
2007,06,21,02,12,14.70
2007,06,21,02,13,14.60
2007,06,21,02,14,14.60
2007,06,21,02,15,14.60
2007,06,21,02,16,14.60
2007,06,21,02,17,14.60
2007,06,21,02,18,14.60
2007,06,21,02,19,14.60
2007,06,21,02,20,14.60
2007,06,21,02,21,14.60
2007,06,21,02,22,14.60
2007,06,21,02,23,14.50
2007,06,21,02,24,14.50
2007,06,21,02,25,14.50
2007,06,21,02,26,14.50
2007,06,21,02,27,14.50
2007,06,21,02,28,14.50
2007,06,21,02,29,14.40
2007,06,21,02,30,14.40
2007,06,21,02,31,14.40
2007,06,21,02,32,14.40
2007,06,21,02,33,14.40
2007,06,21,02,34,14.30
2007,06,21,02,35,14.30
2007,06,21,02,36,14.30
2007,06,21,02,37,14.30
2007,06,21,02,38,14.30
2007,06,21,02,39,14.30
2007,06,21,02,40,14.30
2007,06,21,02,41,14.30
2007,06,21,02,42,14.30
2007,06,21,02,43,14.30
2007,06,21,02,44,14.30
2007,06,21,02,45,14.30
2007,06,21,02,46,14.30
2007,06,21,02,47,14.30
2007,06,21,02,48,14.30
2007,06,21,02,49,14.30
2007,06,21,02,50,14.30
2007,06,21,02,51,14.30
2007,06,21,02,52,14.30
2007,06,21,02,53,14.30
2007,06,21,02,54,14.30
2007,06,21,02,55,14.20
2007,06,21,02,56,14.20
2007,06,21,02,57,14.20
2007,06,21,02,58,14.20
2007,06,21,02,59,14.20
2007,06,21,03,00,14.20
2007,06,21,03,01,14.20
2007,06,21,03,02,14.20
2007,06,21,03,03,14.20
2007,06,21,03,04,14.20
2007,06,21,03,05,14.20
2007,06,21,03,06,14.20
2007,06,21,03,07,14.20
2007,06,21,03,08,14.10
2007,06,21,03,09,14.10
2007,06,21,03,10,14.10
2007,06,21,03,11,14.10
2007,06,21,03,12,14.10
2007,06,21,03,13,14.10
2007,06,21,03,14,14.10
2007,06,21,03,15,14.10
2007,06,21,03,16,14.10
2007,06,21,03,17,14.10
2007,06,21,03,18,14.10
2007,06,21,03,19,14.10
2007,06,21,03,20,14.10
2007,06,21,03,21,14.10
2007,06,21,03,22,14.10
2007,06,21,03,23,14.10
2007,06,21,03,24,14.10
2007,06,21,03,25,14.10
2007,06,21,03,26,14.10
2007,06,21,03,27,14.10
2007,06,21,03,28,14.10
2007,06,21,03,29,14.10
2007,06,21,03,30,14.10
2007,06,21,03,31,14.20
2007,06,21,03,32,14.20
2007,06,21,03,33,14.20
2007,06,21,03,34,14.20
2007,06,21,03,35,14.20
2007,06,21,03,36,14.20
2007,06,21,03,37,14.20
2007,06,21,03,38,14.20
2007,06,21,03,39,14.20
2007,06,21,03,40,14.20
2007,06,21,03,41,14.20
2007,06,21,03,42,14.20
2007,06,21,03,43,14.20
2007,06,21,03,44,14.20
2007,06,21,03,45,14.20
2007,06,21,03,46,14.20
2007,06,21,03,47,14.20
2007,06,21,03,48,14.20
2007,06,21,03,49,14.20
2007,06,21,03,50,14.20
2007,06,21,03,51,14.20
2007,06,21,03,52,14.20
2007,06,21,03,53,14.20
2007,06,21,03,54,14.20
2007,06,21,03,55,14.20
2007,06,21,03,56,14.20
2007,06,21,03,57,14.20
2007,06,21,03,58,14.20
2007,06,21,03,59,14.20
2007,06,21,04,00,14.20
2007,06,21,04,01,14.20
2007,06,21,04,02,14.20
2007,06,21,04,03,14.10
2007,06,21,04,04,14.10
2007,06,21,04,05,14.10
2007,06,21,04,06,14.10
2007,06,21,04,07,14.10
2007,06,21,04,08,14.10
2007,06,21,04,09,14.00
2007,06,21,04,10,14.00
2007,06,21,04,11,14.00
2007,06,21,04,12,14.00
2007,06,21,04,13,14.00
2007,06,21,04,14,13.90
2007,06,21,04,15,13.90
2007,06,21,04,16,13.90
2007,06,21,04,17,13.90
2007,06,21,04,18,13.90
2007,06,21,04,19,13.80
2007,06,21,04,20,13.80
2007,06,21,04,21,13.80
2007,06,21,04,22,13.80
2007,06,21,04,23,13.80
2007,06,21,04,24,13.70
2007,06,21,04,25,13.70
2007,06,21,04,26,13.70
2007,06,21,04,27,13.70
2007,06,21,04,28,13.70
2007,06,21,04,29,13.70
2007,06,21,04,30,13.70
2007,06,21,04,31,13.70
2007,06,21,04,32,13.70
2007,06,21,04,33,13.70
2007,06,21,04,34,13.70
2007,06,21,04,35,13.70
2007,06,21,04,36,13.70
2007,06,21,04,37,13.70
2007,06,21,04,38,13.70
2007,06,21,04,39,13.70
2007,06,21,04,40,13.70
2007,06,21,04,41,13.70
2007,06,21,04,42,13.70
2007,06,21,04,43,13.70
2007,06,21,04,44,13.70
2007,06,21,04,45,13.70
2007,06,21,04,46,13.70
2007,06,21,04,47,13.70
2007,06,21,04,48,13.70
2007,06,21,04,49,13.60
2007,06,21,04,50,13.60
2007,06,21,04,51,13.60
2007,06,21,04,52,13.60
2007,06,21,04,53,13.60
2007,06,21,04,54,13.60
2007,06,21,04,55,13.60
2007,06,21,04,56,13.60
2007,06,21,04,57,13.60
2007,06,21,04,58,13.60
2007,06,21,04,59,13.60
2007,06,21,05,00,13.60
2007,06,21,05,01,13.60
2007,06,21,05,02,13.60
2007,06,21,05,03,13.60
2007,06,21,05,04,13.60
2007,06,21,05,05,13.50
2007,06,21,05,06,13.50
2007,06,21,05,07,13.50
2007,06,21,05,08,13.50
2007,06,21,05,09,13.50
2007,06,21,05,10,13.50
2007,06,21,05,11,13.40
2007,06,21,05,12,13.40
2007,06,21,05,13,13.40
2007,06,21,05,14,13.40
2007,06,21,05,15,13.40
2007,06,21,05,16,13.40
2007,06,21,05,17,13.40
2007,06,21,05,18,13.40
2007,06,21,05,19,13.40
2007,06,21,05,20,13.40
2007,06,21,05,21,13.40
2007,06,21,05,22,13.30
2007,06,21,05,23,13.30
2007,06,21,05,24,13.30
2007,06,21,05,25,13.30
2007,06,21,05,26,13.30
2007,06,21,05,27,13.30
2007,06,21,05,28,13.30
2007,06,21,05,29,13.30
2007,06,21,05,30,13.20
2007,06,21,05,31,13.20
2007,06,21,05,32,13.20
2007,06,21,05,33,13.10
2007,06,21,05,34,13.10
2007,06,21,05,35,13.10
2007,06,21,05,36,13.00
2007,06,21,05,37,13.00
2007,06,21,05,38,13.00
2007,06,21,05,39,13.00
2007,06,21,05,40,12.90
2007,06,21,05,41,12.90
2007,06,21,05,42,12.90
2007,06,21,05,43,12.80
2007,06,21,05,44,12.80
2007,06,21,05,45,12.80
2007,06,21,05,46,12.80
2007,06,21,05,47,12.80
2007,06,21,05,48,12.80
2007,06,21,05,49,12.80
2007,06,21,05,50,12.70
2007,06,21,05,51,12.70
2007,06,21,05,52,12.70
2007,06,21,05,53,12.60
2007,06,21,05,54,12.60
2007,06,21,05,55,12.60
2007,06,21,05,56,12.60
2007,06,21,05,57,12.60
2007,06,21,05,58,12.50
2007,06,21,05,59,12.50
2007,06,21,06,00,12.50
2007,06,21,06,01,12.50
2007,06,21,06,02,12.50
2007,06,21,06,03,12.50
2007,06,21,06,04,12.40
2007,06,21,06,05,12.40
2007,06,21,06,06,12.40
2007,06,21,06,07,12.40
2007,06,21,06,08,12.30
2007,06,21,06,09,12.30
2007,06,21,06,10,12.30
2007,06,21,06,11,12.30
2007,06,21,06,12,12.30
2007,06,21,06,13,12.30
2007,06,21,06,14,12.30
2007,06,21,06,15,12.30
2007,06,21,06,16,12.30
2007,06,21,06,17,12.20
2007,06,21,06,18,12.20
2007,06,21,06,19,12.20
2007,06,21,06,20,12.10
2007,06,21,06,21,12.10
2007,06,21,06,22,12.10
2007,06,21,06,23,12.00
2007,06,21,06,24,12.00
2007,06,21,06,25,12.00
2007,06,21,06,26,11.90
2007,06,21,06,27,11.90
2007,06,21,06,28,11.90
2007,06,21,06,29,11.80
2007,06,21,06,30,11.80
2007,06,21,06,31,11.80
2007,06,21,06,32,11.80
2007,06,21,06,33,11.80
2007,06,21,06,34,11.70
2007,06,21,06,35,11.70
2007,06,21,06,36,11.70
2007,06,21,06,37,11.60
2007,06,21,06,38,11.60
2007,06,21,06,39,11.60
2007,06,21,06,40,11.60
2007,06,21,06,41,11.60
2007,06,21,06,42,11.60
2007,06,21,06,43,11.60
2007,06,21,06,44,11.60
2007,06,21,06,45,11.60
2007,06,21,06,46,11.60
2007,06,21,06,47,11.40
2007,06,21,06,48,11.40
2007,06,21,06,49,11.40
2007,06,21,06,50,11.40
2007,06,21,06,51,11.40
2007,06,21,06,52,11.40
2007,06,21,06,53,11.40
2007,06,21,06,54,11.40
2007,06,21,06,55,11.40
2007,06,21,06,56,11.40
2007,06,21,06,57,11.30
2007,06,21,06,58,11.30
2007,06,21,06,59,11.30
2007,06,21,07,00,11.30
2007,06,21,07,01,11.20
2007,06,21,07,02,11.20
2007,06,21,07,03,11.20
2007,06,21,07,04,11.20
2007,06,21,07,05,11.20
2007,06,21,07,06,11.20
2007,06,21,07,07,11.20
2007,06,21,07,08,11.20
2007,06,21,07,09,11.20
2007,06,21,07,10,11.20
2007,06,21,07,11,11.20
2007,06,21,07,12,11.20
2007,06,21,07,13,11.10
2007,06,21,07,14,11.10
2007,06,21,07,15,11.10
2007,06,21,07,16,11.10
2007,06,21,07,17,11.10
2007,06,21,07,18,11.10
2007,06,21,07,19,11.10
2007,06,21,07,20,11.10
2007,06,21,07,21,11.10
2007,06,21,07,22,11.20
2007,06,21,07,23,11.20
2007,06,21,07,24,11.20
2007,06,21,07,25,11.20
2007,06,21,07,26,11.20
2007,06,21,07,27,11.20
2007,06,21,07,28,11.20
2007,06,21,07,29,11.30
2007,06,21,07,30,11.30
2007,06,21,07,31,11.30
2007,06,21,07,32,11.30
2007,06,21,07,33,11.30
2007,06,21,07,34,11.30
2007,06,21,07,35,11.40
2007,06,21,07,36,11.40
2007,06,21,07,37,11.40
2007,06,21,07,38,11.40
2007,06,21,07,39,11.40
2007,06,21,07,40,11.50
2007,06,21,07,41,11.60
2007,06,21,07,42,11.60
2007,06,21,07,43,11.60
2007,06,21,07,44,11.60
2007,06,21,07,45,11.60
2007,06,21,07,46,11.60
2007,06,21,07,47,11.60
2007,06,21,07,48,11.60
2007,06,21,07,49,11.60
2007,06,21,07,50,11.60
2007,06,21,07,51,11.60
2007,06,21,07,52,11.60
2007,06,21,07,53,11.60
2007,06,21,07,54,11.60
2007,06,21,07,55,11.60
2007,06,21,07,56,11.50
2007,06,21,07,57,11.40
2007,06,21,07,58,11.40
2007,06,21,07,59,11.40
2007,06,21,08,00,11.40
2007,06,21,08,01,11.40
2007,06,21,08,02,11.40
2007,06,21,08,03,11.40
2007,06,21,08,04,11.50
2007,06,21,08,05,11.60
2007,06,21,08,06,11.60
2007,06,21,08,07,11.60
2007,06,21,08,08,11.60
2007,06,21,08,09,11.60
2007,06,21,08,10,11.60
2007,06,21,08,11,11.60
2007,06,21,08,12,11.60
2007,06,21,08,13,11.60
2007,06,21,08,14,11.60
2007,06,21,08,15,11.70
2007,06,21,08,16,11.80
2007,06,21,08,17,11.80
2007,06,21,08,18,11.80
2007,06,21,08,19,11.80
2007,06,21,08,20,11.90
2007,06,21,08,21,11.90
2007,06,21,08,22,12.00
2007,06,21,08,23,12.00
2007,06,21,08,24,12.10
2007,06,21,08,25,12.20
2007,06,21,08,26,12.30
2007,06,21,08,27,12.30
2007,06,21,08,28,12.40
2007,06,21,08,29,12.50
2007,06,21,08,30,12.60
2007,06,21,08,31,12.70
2007,06,21,08,32,12.80
2007,06,21,08,33,12.80
2007,06,21,08,34,12.80
2007,06,21,08,35,12.80
2007,06,21,08,36,12.90
2007,06,21,08,37,12.90
2007,06,21,08,38,12.90
2007,06,21,08,39,12.90
2007,06,21,08,40,12.90
2007,06,21,08,41,13.00
2007,06,21,08,42,13.00
2007,06,21,08,43,13.00
2007,06,21,08,44,13.10
2007,06,21,08,45,13.10
2007,06,21,08,46,13.10
2007,06,21,08,47,13.10
2007,06,21,08,48,13.10
2007,06,21,08,49,13.10
2007,06,21,08,50,13.10
2007,06,21,08,51,13.20
2007,06,21,08,52,13.20
2007,06,21,08,53,13.20
2007,06,21,08,54,13.30
2007,06,21,08,55,13.40
2007,06,21,08,56,13.50
2007,06,21,08,57,13.60
2007,06,21,08,58,13.60
2007,06,21,08,59,13.70
2007,06,21,09,00,13.80
2007,06,21,09,01,13.90
2007,06,21,09,02,14.00
2007,06,21,09,03,14.10
2007,06,21,09,04,14.20
2007,06,21,09,05,14.40
2007,06,21,09,06,14.40
2007,06,21,09,07,14.40
2007,06,21,09,08,14.40
2007,06,21,09,09,14.40
2007,06,21,09,10,14.40
2007,06,21,09,11,14.40
2007,06,21,09,12,14.40
2007,06,21,09,13,14.30
2007,06,21,09,14,14.30
2007,06,21,09,15,14.30
2007,06,21,09,16,14.30
2007,06,21,09,17,14.30
2007,06,21,09,18,14.30
2007,06,21,09,19,14.30
2007,06,21,09,20,14.20
2007,06,21,09,21,14.20
2007,06,21,09,22,14.10
2007,06,21,09,23,14.00
2007,06,21,09,24,13.90
2007,06,21,09,25,13.80
2007,06,21,09,26,13.70
2007,06,21,09,27,13.50
2007,06,21,09,28,13.40
2007,06,21,09,29,13.40
2007,06,21,09,30,13.40
2007,06,21,09,31,13.30
2007,06,21,09,32,13.20
2007,06,21,09,33,13.10
2007,06,21,09,34,13.00
2007,06,21,09,35,13.00
2007,06,21,09,36,13.00
2007,06,21,09,37,13.00
2007,06,21,09,38,13.10
2007,06,21,09,39,13.20
2007,06,21,09,40,13.20
2007,06,21,09,41,13.30
2007,06,21,09,42,13.20
2007,06,21,09,43,13.20
2007,06,21,09,44,13.20
2007,06,21,09,45,13.20
2007,06,21,09,46,13.20
2007,06,21,09,47,13.20
2007,06,21,09,48,13.30
2007,06,21,09,49,13.30
2007,06,21,09,50,13.30
2007,06,21,09,51,13.30
2007,06,21,09,52,13.30
2007,06,21,09,53,13.30
2007,06,21,09,54,13.30
2007,06,21,09,55,13.30
2007,06,21,09,56,13.40
2007,06,21,09,57,13.40
2007,06,21,09,58,13.40
2007,06,21,09,59,13.30
2007,06,21,10,00,13.30
2007,06,21,10,01,13.40
2007,06,21,10,02,13.50
2007,06,21,10,03,13.60
2007,06,21,10,04,13.60
2007,06,21,10,05,13.60
2007,06,21,10,06,13.60
2007,06,21,10,07,13.60
2007,06,21,10,08,13.60
2007,06,21,10,09,13.50
2007,06,21,10,10,13.60
2007,06,21,10,11,13.60
2007,06,21,10,12,13.60
2007,06,21,10,13,13.70
2007,06,21,10,14,13.70
2007,06,21,10,15,13.70
2007,06,21,10,16,13.70
2007,06,21,10,17,13.70
2007,06,21,10,18,13.70
2007,06,21,10,19,13.80
2007,06,21,10,20,13.80
2007,06,21,10,21,13.90
2007,06,21,10,22,14.00
2007,06,21,10,23,14.00
2007,06,21,10,24,14.10
2007,06,21,10,25,14.20
2007,06,21,10,26,14.30
2007,06,21,10,27,14.40
2007,06,21,10,28,14.40
2007,06,21,10,29,14.40
2007,06,21,10,30,14.40
2007,06,21,10,31,14.50
2007,06,21,10,32,14.60
2007,06,21,10,33,14.70
2007,06,21,10,34,14.80
2007,06,21,10,35,14.90
2007,06,21,10,36,15.00
2007,06,21,10,37,15.00
2007,06,21,10,38,15.00
2007,06,21,10,39,15.00
2007,06,21,10,40,15.00
2007,06,21,10,41,15.00
2007,06,21,10,42,15.00
2007,06,21,10,43,15.00
2007,06,21,10,44,15.00
2007,06,21,10,45,14.80
2007,06,21,10,46,14.80
2007,06,21,10,47,15.00
2007,06,21,10,48,15.10
2007,06,21,10,49,15.20
2007,06,21,10,50,15.30
2007,06,21,10,51,15.30
2007,06,21,10,52,15.10
2007,06,21,10,53,15.10
2007,06,21,10,54,15.10
2007,06,21,10,55,15.00
2007,06,21,10,56,15.00
2007,06,21,10,57,15.00
2007,06,21,10,58,15.00
2007,06,21,10,59,15.00
2007,06,21,11,00,15.10
2007,06,21,11,01,15.20
2007,06,21,11,02,15.30
2007,06,21,11,03,15.30
2007,06,21,11,04,15.20
2007,06,21,11,05,15.10
2007,06,21,11,06,15.00
2007,06,21,11,07,15.00
2007,06,21,11,08,14.90
2007,06,21,11,09,15.00
2007,06,21,11,10,15.10
2007,06,21,11,11,15.20
2007,06,21,11,12,15.30
2007,06,21,11,13,15.30
2007,06,21,11,14,15.40
2007,06,21,11,15,15.40
2007,06,21,11,16,15.30
2007,06,21,11,17,15.30
2007,06,21,11,18,15.30
2007,06,21,11,19,15.30
2007,06,21,11,20,15.40
2007,06,21,11,21,15.50
2007,06,21,11,22,15.60
2007,06,21,11,23,15.60
2007,06,21,11,24,15.70
2007,06,21,11,25,15.80
2007,06,21,11,26,15.70
2007,06,21,11,27,15.60
2007,06,21,11,28,15.50
2007,06,21,11,29,15.40
2007,06,21,11,30,15.40
2007,06,21,11,31,15.40
2007,06,21,11,32,15.30
2007,06,21,11,33,15.20
2007,06,21,11,34,15.20
2007,06,21,11,35,15.30
2007,06,21,11,36,15.30
2007,06,21,11,37,15.30
2007,06,21,11,38,15.20
2007,06,21,11,39,15.20
2007,06,21,11,40,15.30
2007,06,21,11,41,15.30
2007,06,21,11,42,15.20
2007,06,21,11,43,15.20
2007,06,21,11,44,15.20
2007,06,21,11,45,15.30
2007,06,21,11,46,15.30
2007,06,21,11,47,15.40
2007,06,21,11,48,15.40
2007,06,21,11,49,15.50
2007,06,21,11,50,15.50
2007,06,21,11,51,15.50
2007,06,21,11,52,15.60
2007,06,21,11,53,15.70
2007,06,21,11,54,15.80
2007,06,21,11,55,15.90
2007,06,21,11,56,15.90
2007,06,21,11,57,15.90
2007,06,21,11,58,16.00
2007,06,21,11,59,16.10
2007,06,21,12,00,16.00
2007,06,21,12,01,15.70
2007,06,21,12,02,15.50
2007,06,21,12,03,15.40
2007,06,21,12,04,15.30
2007,06,21,12,05,15.20
2007,06,21,12,06,15.00
2007,06,21,12,07,14.80
2007,06,21,12,08,14.60
2007,06,21,12,09,14.60
2007,06,21,12,10,14.50
2007,06,21,12,11,14.40
2007,06,21,12,12,14.30
2007,06,21,12,13,14.40
2007,06,21,12,14,14.50
2007,06,21,12,15,14.60
2007,06,21,12,16,14.60
2007,06,21,12,17,14.50
2007,06,21,12,18,14.60
2007,06,21,12,19,14.70
2007,06,21,12,20,14.70
2007,06,21,12,21,14.70
2007,06,21,12,22,14.80
2007,06,21,12,23,14.80
2007,06,21,12,24,14.80
2007,06,21,12,25,14.80
2007,06,21,12,26,14.70
2007,06,21,12,27,14.70
2007,06,21,12,28,14.80
2007,06,21,12,29,14.90
2007,06,21,12,30,15.10
2007,06,21,12,31,15.20
2007,06,21,12,32,15.30
2007,06,21,12,33,15.50
2007,06,21,12,34,15.70
2007,06,21,12,35,15.70
2007,06,21,12,36,15.70
2007,06,21,12,37,15.70
2007,06,21,12,38,15.60
2007,06,21,12,39,15.50
2007,06,21,12,40,15.50
2007,06,21,12,41,15.40
2007,06,21,12,42,15.40
2007,06,21,12,43,15.50
2007,06,21,12,44,15.60
2007,06,21,12,45,15.70
2007,06,21,12,46,15.60
2007,06,21,12,47,15.70
2007,06,21,12,48,15.70
2007,06,21,12,49,15.70
2007,06,21,12,50,15.70
2007,06,21,12,51,15.70
2007,06,21,12,52,15.80
2007,06,21,12,53,15.80
2007,06,21,12,54,15.80
2007,06,21,12,55,15.70
2007,06,21,12,56,15.70
2007,06,21,12,57,15.80
2007,06,21,12,58,15.90
2007,06,21,12,59,16.10
2007,06,21,13,00,16.00
2007,06,21,13,01,15.80
2007,06,21,13,02,15.80
2007,06,21,13,03,15.80
2007,06,21,13,04,15.70
2007,06,21,13,05,15.70
2007,06,21,13,06,15.70
2007,06,21,13,07,15.70
2007,06,21,13,08,15.70
2007,06,21,13,09,15.70
2007,06,21,13,10,15.60
2007,06,21,13,11,15.60
2007,06,21,13,12,15.60
2007,06,21,13,13,15.70
2007,06,21,13,14,15.60
2007,06,21,13,15,15.50
2007,06,21,13,16,15.50
2007,06,21,13,17,15.60
2007,06,21,13,18,15.60
2007,06,21,13,19,15.70
2007,06,21,13,20,15.70
2007,06,21,13,21,15.60
2007,06,21,13,22,15.50
2007,06,21,13,23,15.40
2007,06,21,13,24,15.30
2007,06,21,13,25,15.30
2007,06,21,13,26,15.40
2007,06,21,13,27,15.40
2007,06,21,13,28,15.50
2007,06,21,13,29,15.60
2007,06,21,13,30,15.60
2007,06,21,13,31,15.60
2007,06,21,13,32,15.60
2007,06,21,13,33,15.50
2007,06,21,13,34,15.50
2007,06,21,13,35,15.40
2007,06,21,13,36,15.40
2007,06,21,13,37,15.60
2007,06,21,13,38,15.70
2007,06,21,13,39,15.80
2007,06,21,13,40,15.60
2007,06,21,13,41,15.60
2007,06,21,13,42,15.50
2007,06,21,13,43,15.50
2007,06,21,13,44,15.40
2007,06,21,13,45,15.30
2007,06,21,13,46,15.20
2007,06,21,13,47,15.20
2007,06,21,13,48,15.20
2007,06,21,13,49,15.20
2007,06,21,13,50,15.20
2007,06,21,13,51,15.30
2007,06,21,13,52,15.20
2007,06,21,13,53,15.20
2007,06,21,13,54,15.20
2007,06,21,13,55,15.20
2007,06,21,13,56,15.30
2007,06,21,13,57,15.50
2007,06,21,13,58,15.60
2007,06,21,13,59,15.80
2007,06,21,14,00,15.90
2007,06,21,14,01,16.10
2007,06,21,14,02,16.00
2007,06,21,14,03,15.90
2007,06,21,14,04,15.80
2007,06,21,14,05,15.80
2007,06,21,14,06,15.70
2007,06,21,14,07,15.80
2007,06,21,14,08,15.90
2007,06,21,14,09,15.90
2007,06,21,14,10,15.80
2007,06,21,14,11,15.80
2007,06,21,14,12,15.90
2007,06,21,14,13,16.10
2007,06,21,14,14,16.20
2007,06,21,14,15,16.30
2007,06,21,14,16,16.40
2007,06,21,14,17,16.60
2007,06,21,14,18,16.60
2007,06,21,14,19,16.50
2007,06,21,14,20,16.30
2007,06,21,14,21,16.20
2007,06,21,14,22,16.10
2007,06,21,14,23,16.20
2007,06,21,14,24,16.20
2007,06,21,14,25,16.20
2007,06,21,14,26,16.20
2007,06,21,14,27,16.30
2007,06,21,14,28,16.20
2007,06,21,14,29,16.10
2007,06,21,14,30,16.10
2007,06,21,14,31,15.90
2007,06,21,14,32,16.00
2007,06,21,14,33,15.90
2007,06,21,14,34,15.90
2007,06,21,14,35,16.10
2007,06,21,14,36,16.10
2007,06,21,14,37,16.10
2007,06,21,14,38,16.10
2007,06,21,14,39,16.10
2007,06,21,14,40,16.00
2007,06,21,14,41,15.90
2007,06,21,14,42,16.00
2007,06,21,14,43,16.10
2007,06,21,14,44,16.10
2007,06,21,14,45,16.10
2007,06,21,14,46,16.20
2007,06,21,14,47,16.30
2007,06,21,14,48,16.40
2007,06,21,14,49,16.60
2007,06,21,14,50,16.70
2007,06,21,14,51,16.60
2007,06,21,14,52,16.60
2007,06,21,14,53,16.70
2007,06,21,14,54,16.70
2007,06,21,14,55,16.50
2007,06,21,14,56,16.40
2007,06,21,14,57,16.40
2007,06,21,14,58,16.60
2007,06,21,14,59,16.50
2007,06,21,15,00,16.40
2007,06,21,15,01,16.40
2007,06,21,15,02,16.40
2007,06,21,15,03,16.30
2007,06,21,15,04,16.30
2007,06,21,15,05,16.30
2007,06,21,15,06,16.30
2007,06,21,15,07,16.40
2007,06,21,15,08,16.40
2007,06,21,15,09,16.40
2007,06,21,15,10,16.40
2007,06,21,15,11,16.40
2007,06,21,15,12,16.40
2007,06,21,15,13,16.40
2007,06,21,15,14,16.50
2007,06,21,15,15,16.60
2007,06,21,15,16,16.70
2007,06,21,15,17,16.70
2007,06,21,15,18,16.70
2007,06,21,15,19,16.80
2007,06,21,15,20,16.90
2007,06,21,15,21,17.00
2007,06,21,15,22,16.90
2007,06,21,15,23,17.00
2007,06,21,15,24,17.00
2007,06,21,15,25,17.00
2007,06,21,15,26,17.00
2007,06,21,15,27,17.00
2007,06,21,15,28,17.00
2007,06,21,15,29,16.90
2007,06,21,15,30,16.90
2007,06,21,15,31,17.00
2007,06,21,15,32,17.00
2007,06,21,15,33,16.90
2007,06,21,15,34,16.90
2007,06,21,15,35,16.90
2007,06,21,15,36,17.00
2007,06,21,15,37,17.00
2007,06,21,15,38,17.10
2007,06,21,15,39,17.20
2007,06,21,15,40,17.30
2007,06,21,15,41,17.40
2007,06,21,15,42,17.40
2007,06,21,15,43,17.40
2007,06,21,15,44,17.40
2007,06,21,15,45,17.40
2007,06,21,15,46,17.50
2007,06,21,15,47,17.60
2007,06,21,15,48,17.60
2007,06,21,15,49,17.50
2007,06,21,15,50,17.50
2007,06,21,15,51,17.50
2007,06,21,15,52,17.50
2007,06,21,15,53,17.40
2007,06,21,15,54,17.30
2007,06,21,15,55,17.40
2007,06,21,15,56,17.50
2007,06,21,15,57,17.50
2007,06,21,15,58,17.40
2007,06,21,15,59,17.40
2007,06,21,16,00,17.40
2007,06,21,16,01,17.50
2007,06,21,16,02,17.50
2007,06,21,16,03,17.70
2007,06,21,16,04,17.70
2007,06,21,16,05,17.80
2007,06,21,16,06,17.80
2007,06,21,16,07,17.80
2007,06,21,16,08,17.90
2007,06,21,16,09,17.90
2007,06,21,16,10,18.10
2007,06,21,16,11,18.10
2007,06,21,16,12,18.10
2007,06,21,16,13,18.20
2007,06,21,16,14,18.30
2007,06,21,16,15,18.50
2007,06,21,16,16,18.70
2007,06,21,16,17,18.90
2007,06,21,16,18,19.10
2007,06,21,16,19,19.20
2007,06,21,16,20,19.20
2007,06,21,16,21,19.20
2007,06,21,16,22,19.30
2007,06,21,16,23,19.20
2007,06,21,16,24,18.90
2007,06,21,16,25,18.70
2007,06,21,16,26,18.60
2007,06,21,16,27,18.50
2007,06,21,16,28,18.40
2007,06,21,16,29,18.30
2007,06,21,16,30,18.20
2007,06,21,16,31,18.20
2007,06,21,16,32,18.20
2007,06,21,16,33,18.20
2007,06,21,16,34,18.20
2007,06,21,16,35,18.20
2007,06,21,16,36,18.20
2007,06,21,16,37,18.20
2007,06,21,16,38,18.20
2007,06,21,16,39,18.30
2007,06,21,16,40,18.30
2007,06,21,16,41,18.30
2007,06,21,16,42,18.40
2007,06,21,16,43,18.40
2007,06,21,16,44,18.40
2007,06,21,16,45,18.30
2007,06,21,16,46,18.20
2007,06,21,16,47,18.30
2007,06,21,16,48,18.40
2007,06,21,16,49,18.50
2007,06,21,16,50,18.60
2007,06,21,16,51,18.70
2007,06,21,16,52,18.80
2007,06,21,16,53,18.90
2007,06,21,16,54,18.80
2007,06,21,16,55,18.70
2007,06,21,16,56,18.70
2007,06,21,16,57,18.60
2007,06,21,16,58,18.60
2007,06,21,16,59,18.60
2007,06,21,17,00,18.60
2007,06,21,17,01,18.60
2007,06,21,17,02,18.60
2007,06,21,17,03,18.50
2007,06,21,17,04,18.50
2007,06,21,17,05,18.50
2007,06,21,17,06,18.50
2007,06,21,17,07,18.50
2007,06,21,17,08,18.50
2007,06,21,17,09,18.40
2007,06,21,17,10,18.40
2007,06,21,17,11,18.30
2007,06,21,17,12,18.30
2007,06,21,17,13,18.30
2007,06,21,17,14,18.30
2007,06,21,17,15,18.20
2007,06,21,17,16,18.20
2007,06,21,17,17,18.20
2007,06,21,17,18,18.20
2007,06,21,17,19,18.00